TimeEDT,TemperatureF,Dew PointF,Humidity,Sea Level PressureIn,VisibilityMPH,Wind Direction,Wind SpeedMPH,Gust SpeedMPH,PrecipitationIn,Events,Conditions,WindDirDegrees,DateUTC
12:54 AM,62.1,52.0,70,30.05,10.0,SSW,3.5,-,N/A,,Clear,200,2013-07-27 04:54:00
1:54 AM,62.1,53.1,72,30.03,10.0,SSW,4.6,-,N/A,,Clear,210,2013-07-27 05:54:00
2:54 AM,61.0,53.1,75,30.01,10.0,SSW,4.6,-,N/A,,Clear,200,2013-07-27 06:54:00
3:54 AM,61.0,54.0,78,30.00,10.0,SSW,4.6,-,N/A,,Clear,210,2013-07-27 07:54:00
4:54 AM,61.0,55.0,81,29.99,10.0,SSW,4.6,-,N/A,,Clear,200,2013-07-27 08:54:00
5:54 AM,60.1,55.9,86,29.98,10.0,South,5.8,-,N/A,,Clear,170,2013-07-27 09:54:00
6:54 AM,62.1,55.9,80,29.99,10.0,South,4.6,-,N/A,,Clear,190,2013-07-27 10:54:00
7:54 AM,63.0,57.0,81,29.99,10.0,SW,3.5,-,N/A,,Clear,220,2013-07-27 11:54:00
8:54 AM,64.9,57.9,78,30.01,10.0,SSW,5.8,-,N/A,,Clear,210,2013-07-27 12:54:00
9:54 AM,68.0,60.1,76,30.00,10.0,SW,5.8,-,N/A,,Clear,230,2013-07-27 13:54:00
10:35 AM,66.2,60.8,83,30.05,7.0,SW,15.0,20.7,0.00,Rain-Thunderstorm,Light Rain,220,2013-07-27 14:35:00
10:42 AM,64.4,60.8,88,30.05,5.0,SSW,12.7,23.0,0.00,Rain-Thunderstorm,Light Rain,210,2013-07-27 14:42:00
10:54 AM,63.0,59.0,87,30.02,5.0,SSW,9.2,-,0.02,Rain,Rain,200,2013-07-27 14:54:00
11:54 AM,63.0,61.0,93,30.00,8.0,Calm,Calm,-,0.03,Rain,Light Rain,0,2013-07-27 15:54:00
12:54 PM,64.9,62.1,90,29.98,10.0,ESE,3.5,-,0.00,,Overcast,120,2013-07-27 16:54:00
1:54 PM,66.9,62.1,84,29.97,10.0,SSE,8.1,-,N/A,,Mostly Cloudy,160,2013-07-27 17:54:00
2:54 PM,68.0,62.1,81,29.95,10.0,SSE,10.4,-,0.00,Rain,Light Rain,160,2013-07-27 18:54:00
3:41 PM,68.0,62.6,83,29.98,7.0,South,12.7,-,0.00,Rain,Light Rain,170,2013-07-27 19:41:00
3:54 PM,66.9,63.0,87,29.95,7.0,South,10.4,-,0.01,Rain,Light Rain,190,2013-07-27 19:54:00
4:32 PM,66.2,60.8,83,29.96,10.0,South,8.1,-,0.01,,Overcast,190,2013-07-27 20:32:00
4:54 PM,66.0,63.0,90,29.94,10.0,South,6.9,-,0.01,,Overcast,180,2013-07-27 20:54:00
5:54 PM,66.9,63.0,87,29.92,10.0,SE,3.5,-,N/A,,Overcast,140,2013-07-27 21:54:00
6:20 PM,66.2,62.6,88,29.94,10.0,SSE,6.9,-,N/A,,Mostly Cloudy,160,2013-07-27 22:20:00
6:34 PM,66.2,62.6,88,29.95,10.0,SSE,6.9,-,N/A,,Mostly Cloudy,160,2013-07-27 22:34:00
6:54 PM,66.9,63.0,87,29.92,10.0,SSE,10.4,-,N/A,,Overcast,160,2013-07-27 22:54:00
7:44 PM,66.2,62.6,88,29.95,10.0,SSE,8.1,-,N/A,,Scattered Clouds,160,2013-07-27 23:44:00
7:54 PM,66.0,62.1,87,29.93,10.0,SSE,10.4,-,N/A,,Clear,160,2013-07-27 23:54:00
8:54 PM,64.9,61.0,87,29.92,10.0,SSE,8.1,-,N/A,,Overcast,160,2013-07-28 00:54:00
9:54 PM,64.0,61.0,90,29.92,10.0,SSE,6.9,-,0.00,,Overcast,160,2013-07-28 01:54:00
10:54 PM,64.0,61.0,90,29.92,10.0,SSE,8.1,-,0.00,,Overcast,160,2013-07-28 02:54:00
11:54 PM,64.0,61.0,90,29.92,10.0,South,9.2,-,N/A,,Overcast,170,2013-07-28 03:54:00